| time (UTC) | temp F | wind direction | speed knots | gust knots | rain 1hr in | rain 24hr in | rain mn in | humidity % | barometer mb |
| 20260507214725 | 0 | 0 | 0.0 | 0.0 | 0.00 | 0.00 | 0.16 | 100 | 1010.0 |
| 20260507213515 | 0 | 0 | 0.0 | 0.0 | 0.00 | 0.00 | 0.16 | 100 | 1010.0 |
| 20260507212046 | 0 | 0 | 0.0 | 0.0 | 0.00 | 0.00 | 0.16 | 100 | 1009.9 |
| 20260507210615 | 0 | 0 | 0.0 | 0.0 | 0.00 | 0.00 | 0.16 | 100 | 1009.9 |
| 20260507205230 | 0 | 0 | 0.0 | 0.0 | 0.05 | 0.00 | 0.16 | 100 | 1009.8 |
| 20260507204033 | 0 | 0 | 0.0 | 0.0 | 0.13 | 0.00 | 0.16 | 100 | 1009.8 |
| 20260507202753 | 0 | 0 | 0.0 | 0.0 | 0.14 | 0.00 | 0.16 | 100 | 1009.7 |
| 20260507201535 | 57 | 0 | 0.0 | 0.9 | 0.14 | 0.00 | 0.16 | 8 | 1009.8 |
| 20260507200305 | 57 | 0 | 0.0 | 0.9 | 0.14 | 0.00 | 0.16 | 8 | 1009.8 |
| 20260507195022 | 58 | 150 | 0.9 | 2.6 | 0.11 | 0.00 | 0.11 | 8 | 1009.8 |
| 20260507193812 | 58 | 131 | 1.7 | 3.5 | 0.03 | 0.00 | 0.03 | 8 | 1009.7 |
| 20260507192331 | 58 | 337 | 2.6 | 7.8 | 0.02 | 0.00 | 0.02 | 8 | 1009.3 |
| 20260507191120 | 59 | 352 | 4.3 | 7.8 | 0.02 | 0.00 | 0.02 | 8 | 1009.3 |
| 20260507185908 | 60 | 331 | 4.3 | 6.1 | 0.00 | 0.00 | 0.00 | 8 | 1009.0 |
| 20260507184710 | 60 | 331 | 4.3 | 6.1 | 0.00 | 0.00 | 0.00 | 8 | 1009.0 |
| 20260507183503 | 65 | 0 | 0.0 | 3.5 | 0.00 | 0.00 | 0.00 | 8 | 1008.6 |
| 20260507182155 | 65 | 221 | 2.6 | 2.6 | 0.00 | 0.00 | 0.00 | 8 | 1008.1 |
| 20260507180744 | 65 | 185 | 0.9 | 3.5 | 0.00 | 0.00 | 0.00 | 8 | 1007.9 |
| 20260507175244 | 66 | 0 | 0.0 | 2.6 | 0.00 | 0.00 | 0.00 | 8 | 1008.0 |
| 20260507174038 | 66 | 124 | 2.6 | 5.2 | 0.00 | 0.00 | 0.00 | 7 | 1007.8 |
| 20260507172546 | 66 | 106 | 0.9 | 5.2 | 0.00 | 0.00 | 0.00 | 7 | 1007.7 |
| 20260507171050 | 66 | 177 | 0.9 | 1.7 | 0.00 | 0.00 | 0.00 | 7 | 1007.7 |
| 20260507165701 | 66 | 121 | 3.5 | 3.5 | 0.00 | 0.00 | 0.00 | 7 | 1007.7 |
| 20260507164503 | 66 | 233 | 3.5 | 3.5 | 0.00 | 0.00 | 0.00 | 7 | 1007.6 |
| 20260507163210 | 66 | 233 | 3.5 | 3.5 | 0.00 | 0.00 | 0.00 | 7 | 1007.6 |
| 20260507161912 | 66 | 158 | 4.3 | 5.2 | 0.00 | 0.00 | 0.00 | 7 | 1007.7 |
| 20260507160419 | 66 | 140 | 1.7 | 2.6 | 0.00 | 0.00 | 0.00 | 7 | 1007.6 |
| 20260507155120 | 66 | 158 | 3.5 | 5.2 | 0.00 | 0.00 | 0.00 | 7 | 1007.4 |
| 20260507153906 | 66 | 0 | 0.0 | 3.5 | 0.00 | 0.00 | 0.00 | 7 | 1007.1 |
| 20260507152620 | 66 | 0 | 0.0 | 0.0 | 0.00 | 0.00 | 0.00 | 7 | 1007.2 |
| 20260507151410 | 66 | 186 | 4.3 | 4.3 | 0.00 | 0.00 | 0.00 | 7 | 1007.2 |
| 20260507150025 | 67 | 219 | 5.2 | 6.1 | 0.00 | 0.00 | 0.00 | 7 | 1007.4 |
| 20260507144753 | 67 | 219 | 5.2 | 6.1 | 0.00 | 0.00 | 0.00 | 7 | 1007.4 |
| 20260507143315 | 67 | 171 | 1.7 | 7.8 | 0.00 | 0.00 | 0.00 | 7 | 1007.5 |
| 20260507142015 | 68 | 197 | 1.7 | 7.8 | 0.00 | 0.00 | 0.00 | 7 | 1007.4 |
| 20260507135419 | 68 | 250 | 4.3 | 9.6 | 0.00 | 0.00 | 0.00 | 6 | 1007.5 |
| 20260507133950 | 69 | 165 | 1.7 | 10.4 | 0.00 | 0.00 | 0.00 | 7 | 1007.7 |
| 20260507132545 | 68 | 129 | 7.8 | 8.7 | 0.00 | 0.00 | 0.00 | 7 | 1008.0 |
| 20260507131114 | 69 | 231 | 5.2 | 6.1 | 0.00 | 0.00 | 0.00 | 7 | 1008.1 |
| 20260507125824 | 69 | 233 | 1.7 | 1.7 | 0.00 | 0.00 | 0.00 | 7 | 1008.0 |
| 20260507124513 | 69 | 333 | 4.3 | 4.3 | 0.00 | 0.00 | 0.00 | 7 | 1008.2 |
| 20260507123305 | 69 | 333 | 4.3 | 4.3 | 0.00 | 0.00 | 0.00 | 7 | 1008.2 |
| 20260507121915 | 69 | 236 | 0.9 | 1.7 | 0.00 | 0.00 | 0.00 | 7 | 1008.2 |
| 20260507120658 | 68 | 221 | 5.2 | 5.2 | 0.00 | 0.00 | 0.00 | 7 | 1008.5 |
| 20260507115345 | 69 | 1 | 3.5 | 4.3 | 0.00 | 0.00 | 0.00 | 6 | 1008.6 |
| 20260507114050 | 68 | 0 | 0.0 | 2.6 | 0.00 | 0.00 | 0.00 | 7 | 1008.9 |
| 20260507112553 | 69 | 0 | 0.0 | 1.7 | 0.00 | 0.00 | 0.00 | 7 | 1008.8 |
| 20260507111350 | 68 | 0 | 0.0 | 1.7 | 0.00 | 0.00 | 0.00 | 7 | 1009.1 |
| 20260507110045 | 68 | 225 | 0.9 | 2.6 | 0.00 | 0.00 | 0.00 | 7 | 1009.0 |
| 20260507105825 | 68 | 225 | 0.9 | 2.6 | 0.00 | 0.00 | 0.00 | 7 | 1009.0 |
| 20260507104613 | 68 | 225 | 0.9 | 2.6 | 0.00 | 0.00 | 0.00 | 7 | 1009.0 |
| 20260507103239 | 67 | 111 | 2.6 | 5.2 | 0.00 | 0.00 | 0.00 | 7 | 1009.0 |
| 20260507101856 | 67 | 0 | 0.0 | 4.3 | 0.00 | 0.00 | 0.00 | 7 | 1009.1 |
| 20260507100517 | 67 | 170 | 3.5 | 6.1 | 0.00 | 0.00 | 0.00 | 7 | 1009.3 |
| 20260507095251 | 66 | 219 | 2.6 | 3.5 | 0.00 | 0.00 | 0.00 | 7 | 1009.4 |
| 20260507093756 | 66 | 135 | 0.9 | 2.6 | 0.00 | 0.00 | 0.00 | 7 | 1009.3 |
| 20260507092436 | 65 | 0 | 0.0 | 5.2 | 0.00 | 0.00 | 0.00 | 7 | 1009.5 |
| 20260507091056 | 65 | 0 | 0.0 | 1.7 | 0.00 | 0.00 | 0.00 | 7 | 1009.5 |
| 20260507085641 | 65 | 162 | 0.9 | 2.6 | 0.00 | 0.00 | 0.00 | 7 | 1009.4 |
| 20260507084221 | 0 | 0 | 0.0 | 0.0 | 0.00 | 0.00 | 0.00 | 100 | 1009.2 |
| 20260507082925 | 0 | 0 | 0.0 | 0.0 | 0.00 | 0.00 | 0.00 | 100 | 1009.2 |
| 20260507081725 | 0 | 0 | 0.0 | 0.0 | 0.00 | 0.00 | 0.00 | 100 | 1009.2 |
| 20260507080349 | 0 | 0 | 0.0 | 0.0 | 0.00 | 0.00 | 0.00 | 100 | 1009.1 |
| 20260507074901 | 0 | 0 | 0.0 | 0.0 | 0.00 | 0.00 | 0.00 | 100 | 1009.1 |
| 20260507073525 | 0 | 0 | 0.0 | 0.0 | 0.00 | 0.00 | 0.00 | 100 | 1009.2 |
| 20260507072235 | 0 | 0 | 0.0 | 0.0 | 0.00 | 0.00 | 0.00 | 100 | 1009.2 |
| 20260507071035 | 0 | 0 | 0.0 | 0.0 | 0.00 | 0.00 | 0.00 | 100 | 1008.8 |
| 20260507065811 | 0 | 0 | 0.0 | 0.0 | 0.00 | 0.00 | 0.00 | 100 | 1008.8 |
| 20260507064610 | 0 | 0 | 0.0 | 0.0 | 0.00 | 0.00 | 0.00 | 100 | 1008.8 |
| 20260507063316 | 0 | 0 | 0.0 | 0.0 | 0.00 | 0.00 | 0.00 | 100 | 1009.0 |
| 20260507061913 | 0 | 0 | 0.0 | 0.0 | 0.00 | 0.00 | 0.00 | 100 | 1008.9 |
| 20260507060651 | 0 | 0 | 0.0 | 0.0 | 0.00 | 0.00 | 0.00 | 100 | 1008.8 |
| 20260507055450 | 0 | 0 | 0.0 | 0.0 | 0.00 | 0.00 | 0.00 | 100 | 1008.6 |
| 20260507054141 | 0 | 0 | 0.0 | 0.0 | 0.00 | 0.00 | 0.00 | 100 | 1008.3 |
| 20260507052656 | 0 | 0 | 0.0 | 0.0 | 0.00 | 0.00 | 0.00 | 100 | 1008.3 |
| 20260507051345 | 0 | 0 | 0.0 | 0.0 | 0.00 | 0.00 | 0.00 | 100 | 1008.2 |
| 20260507045903 | 0 | 0 | 0.0 | 0.0 | 0.00 | 0.00 | 0.00 | 100 | 1008.3 |
| 20260507044633 | 0 | 0 | 0.0 | 0.0 | 0.00 | 0.00 | 0.00 | 100 | 1008.3 |
| 20260507043401 | 0 | 0 | 0.0 | 0.0 | 0.00 | 0.00 | 0.00 | 100 | 1008.2 |
| 20260507042156 | 0 | 0 | 0.0 | 0.0 | 0.00 | 0.00 | 0.00 | 100 | 1008.1 |
| 20260507040801 | 0 | 0 | 0.0 | 0.0 | 0.00 | 0.00 | 0.00 | 100 | 1008.3 |
| 20260507035306 | 0 | 0 | 0.0 | 0.0 | 0.00 | 0.00 | 0.00 | 100 | 1008.2 |
| 20260507034041 | 0 | 0 | 0.0 | 0.0 | 0.00 | 0.00 | 0.00 | 100 | 1008.2 |
| 20260507032741 | 0 | 0 | 0.0 | 0.0 | 0.00 | 0.00 | 0.00 | 100 | 1008.3 |
| 20260507031307 | 0 | 0 | 0.0 | 0.0 | 0.00 | 0.00 | 0.00 | 100 | 1008.5 |
| 20260507030005 | 0 | 0 | 0.0 | 0.0 | 0.00 | 0.00 | 0.00 | 100 | 1008.6 |
| 20260507024601 | 0 | 0 | 0.0 | 0.0 | 0.00 | 0.00 | 0.00 | 100 | 1008.7 |
| 20260507023400 | 0 | 0 | 0.0 | 0.0 | 0.00 | 0.00 | 0.00 | 100 | 1008.7 |
| 20260507021956 | 0 | 0 | 0.0 | 0.0 | 0.00 | 0.00 | 0.00 | 100 | 1008.6 |
| 20260507020717 | 0 | 0 | 0.0 | 0.0 | 0.00 | 0.00 | 0.00 | 100 | 1008.5 |
| 20260507015503 | 0 | 0 | 0.0 | 0.0 | 0.00 | 0.00 | 0.00 | 100 | 1008.6 |
| 20260507012731 | 0 | 0 | 0.0 | 0.0 | 0.00 | 0.00 | 0.00 | 100 | 1008.4 |
| 20260507011341 | 0 | 0 | 0.0 | 0.0 | 0.00 | 0.00 | 0.00 | 100 | 1008.5 |
| 20260507005851 | 0 | 0 | 0.0 | 0.0 | 0.00 | 0.00 | 0.00 | 100 | 1008.6 |
| 20260507004646 | 0 | 0 | 0.0 | 0.0 | 0.00 | 0.00 | 0.00 | 100 | 1008.6 |
| 20260507003334 | 0 | 0 | 0.0 | 0.0 | 0.00 | 0.00 | 0.00 | 100 | 1008.6 |
| 20260507002121 | 0 | 0 | 0.0 | 0.0 | 0.00 | 0.00 | 0.00 | 100 | 1008.6 |
| 20260507000659 | 0 | 0 | 0.0 | 0.0 | 0.00 | 0.00 | 0.00 | 100 | 1008.8 |
| 20260506235211 | 0 | 0 | 0.0 | 0.0 | 0.00 | 0.00 | 0.00 | 100 | 1008.8 |
| 20260506233923 | 0 | 0 | 0.0 | 0.0 | 0.00 | 0.00 | 0.00 | 100 | 1009.1 |
| 20260506232651 | 0 | 0 | 0.0 | 0.0 | 0.00 | 0.00 | 0.00 | 100 | 1009.1 |
| 20260506231325 | 0 | 0 | 0.0 | 0.0 | 0.00 | 0.00 | 0.00 | 100 | 1009.2 |
| 20260506225949 | 0 | 0 | 0.0 | 0.0 | 0.00 | 0.00 | 0.00 | 100 | 1009.2 |
| 20260506224616 | 0 | 0 | 0.0 | 0.0 | 0.00 | 0.00 | 0.00 | 100 | 1009.2 |
| 20260506223144 | 0 | 0 | 0.0 | 0.0 | 0.00 | 0.00 | 0.00 | 100 | 1009.2 |
| 20260506221731 | 0 | 0 | 0.0 | 0.0 | 0.00 | 0.00 | 0.00 | 100 | 1009.2 |
| 20260506220329 | 0 | 0 | 0.0 | 0.0 | 0.00 | 0.00 | 0.00 | 100 | 1009.3 |